Content
SEND FEEDBACK

Daily
Averages
Monthly
Summary
United States of America

FOWLKES, TENNESSEE


Home > North America > United States > Tennessee
Elevation: 267 feet     Latitude: 36 01N     Longitude: 089 24W

WEATHER
 
SELECT A DAY
Number of Records: 455,032;   Date Range: 1/1/95 - 11/26/14
 
SHARE

PRINT THIS DATA

[ ← Previous Day ]
WEATHER ALMANAC - FEBRUARY 13, 2013
[ Next Day → ]
[ °C ]   °F
Weather ElementAverageHighLow
Temperature40.1 °F44.6 °F (2:15 pm)37.4 °F (5:15 am)
Dewpoint29.7 °F32 °F (1:35 am)28.4 °F (5:56 am)
Humidity66.4 %75 % (5:15 am)57 % (2:15 pm)
Barometer29.94 in30.01 in (11:15 am)29.82 in (2:55 am)
Wind Speed8 mph13.8 mph (2:36 am)
Wind Gust18.4 mph (4:56 am)
Weather ElementAverage
Visibility9.1 mi
Wind DirectionWSW (247.6 °)

Weather ElementTotal
Precipitation0.22 in
Heating Degree Days24 (Base 65)
Averaged from 54 records on February 13, 2013
WEATHER CONDITIONS BREAKOUT
WIND DIRECTION BREAKOUT
WEATHER BY HOUR - FEBRUARY 13, 2013
[ °C ]   °F
Local TimeTemperatureDewpointHumidityBarometerVisibilityWind DirectionWind SpeedGust SpeedPrecipitationEventsConditions
12:35 AM41.0 °F30.2 °F65 %29.86 in10.0 miNorth (360°)5.8 mphOvercast
12:55 AM41.0 °F30.2 °F65 %29.85 in6.0 miNorth (360°)5.8 mphOvercast
1:35 AM41.0 °F32.0 °F70 %29.84 in10.0 miNorth (360°)9.2 mphOvercast
2:15 AM39.2 °F30.2 °F70 %29.84 in6.0 miNorth (360°)12.7 mphOvercast
2:36 AM39.2 °F30.2 °F70 %29.83 in4.0 miNorth (10°)13.8 mphOvercast
2:55 AM39.2 °F30.2 °F70 %29.82 in4.0 miNorth (10°)13.8 mph0.14 inOvercast
3:15 AM39.2 °F30.2 °F70 %29.83 in5.0 miNorth (10°)11.5 mph0.01 inOvercast
3:55 AM39.2 °F30.2 °F70 %29.82 in8.0 miNNE (20°)13.8 mph0.05 inOvercast
4:15 AM39.2 °F30.2 °F70 %29.83 in10.0 miNorth (10°)10.4 mph0.01 inOvercast
4:35 AM39.2 °F30.2 °F70 %29.82 in10.0 miNorth (360°)11.5 mph0.01 inOvercast
4:56 AM39.2 °F30.2 °F70 %29.83 in9.0 miNorth (360°)12.7 mph18.4 mphOvercast
5:15 AM37.4 °F30.2 °F75 %29.84 in9.0 miNorth (360°)12.7 mphOvercast
5:56 AM37.4 °F28.4 °F70 %29.86 in9.0 miNorth (360°)11.5 mphOvercast
6:15 AM37.4 °F28.4 °F70 %29.88 in9.0 miNorth (350°)8.1 mphOvercast
7:15 AM37.4 °F28.4 °F70 %29.89 in6.0 miNorth (360°)8.1 mphMostly Cloudy
7:35 AM37.4 °F28.4 °F70 %29.90 in7.0 miNorth (360°)5.8 mphOvercast
7:55 AM39.2 °F30.2 °F70 %29.91 in7.0 miNNW (340°)6.9 mphOvercast
8:16 AM39.2 °F30.2 °F70 %29.93 in8.0 miNNW (330°)9.2 mphOvercast
8:35 AM39.2 °F30.2 °F70 %29.94 in8.0 miNW (320°)9.2 mphOvercast
8:55 AM39.2 °F30.2 °F70 %29.95 in8.0 miNNW (330°)5.8 mphOvercast
9:35 AM39.2 °F30.2 °F70 %29.96 in9.0 miNorth (350°)8.1 mphOvercast
9:55 AM39.2 °F28.4 °F65 %29.97 in10.0 miNorth (350°)9.2 mphOvercast
10:35 AM39.2 °F28.4 °F65 %29.99 in10.0 miNNW (340°)10.4 mphOvercast
10:55 AM39.2 °F28.4 °F65 %30.00 in10.0 miNNW (330°)8.1 mphOvercast
11:15 AM39.2 °F28.4 °F65 %30.01 in10.0 miNNW (340°)10.4 mphOvercast
11:36 AM39.2 °F28.4 °F65 %30.01 in10.0 miNorth (350°)6.9 mphOvercast
11:55 AM39.2 °F28.4 °F65 %30.01 in10.0 miNNW (340°)8.1 mphOvercast
12:15 PM39.2 °F28.4 °F65 %30.00 in10.0 miNW (310°)4.6 mphOvercast
12:55 PM41.0 °F30.2 °F65 %29.99 in10.0 miCalmOvercast
1:15 PM42.8 °F30.2 °F61 %29.98 in10.0 miWSW (250°)6.9 mphOvercast
1:35 PM42.8 °F30.2 °F61 %29.97 in10.0 miWest (270°)5.8 mphOvercast
2:15 PM44.6 °F30.2 °F57 %29.96 in10.0 miWNW (290°)5.8 mphOvercast
2:35 PM44.6 °F30.2 °F57 %29.96 in10.0 miWSW (250°)4.6 mphOvercast
3:15 PM44.6 °F32.0 °F61 %29.96 in10.0 miWSW (240°)8.1 mphOvercast
3:35 PM44.6 °F32.0 °F61 %29.96 in10.0 miSW (230°)8.1 mphOvercast
3:55 PM44.6 °F32.0 °F61 %29.96 in10.0 miWSW (250°)9.2 mphOvercast
4:15 PM44.6 °F32.0 °F61 %29.97 in10.0 miWSW (250°)10.4 mphOvercast
4:35 PM44.6 °F32.0 °F61 %29.96 in10.0 miSW (230°)8.1 mphMostly Cloudy
4:55 PM44.6 °F30.2 °F57 %29.96 in10.0 miSSW (210°)5.8 mphPartly Cloudy
5:35 PM42.8 °F30.2 °F61 %29.97 in10.0 miWSW (240°)8.1 mphMostly Cloudy
5:55 PM42.8 °F30.2 °F61 %29.97 in10.0 miSouth (190°)5.8 mphOvercast
6:35 PM41.0 °F30.2 °F65 %29.98 in10.0 miSouth (190°)5.8 mphClear
7:15 PM39.2 °F30.2 °F70 %29.99 in10.0 miSouth (180°)4.6 mphClear
7:55 PM39.2 °F28.4 °F65 %29.99 in10.0 miSouth (180°)5.8 mphClear
8:35 PM37.4 °F28.4 °F70 %29.99 in10.0 miSouth (180°)5.8 mphClear
9:15 PM37.4 °F28.4 °F70 %30.00 in10.0 miSouth (180°)5.8 mphClear
9:35 PM37.4 °F28.4 °F70 %30.00 in10.0 miSouth (190°)5.8 mphClear
10:15 PM37.4 °F28.4 °F70 %30.01 in10.0 miSouth (180°)4.6 mphClear
10:35 PM37.4 °F28.4 °F70 %30.01 in10.0 miSouth (180°)6.9 mphClear
10:55 PM37.4 °F28.4 °F70 %30.01 in10.0 miSouth (180°)6.9 mphClear
11:15 PM39.2 °F28.4 °F65 %30.01 in10.0 miSSW (200°)6.9 mphClear
11:16 PM39.2 °F28.4 °F65 %30.01 in10.0 miSSW (200°)8.1 mphClear
11:35 PM39.2 °F28.4 °F65 %30.01 in10.0 miSouth (190°)5.8 mphClear
11:55 PM39.2 °F28.4 °F65 %30.01 in10.0 miSSW (200°)8.1 mphClear
Hourly data recorded from KDYR, located miles away from Fowlkes, Tennessee







STORIES FROM OUR PARTNERS